Mackinac Island, MI

1:42 AM EDT on June 23, 2017 (GMT -0400)
Mackinac Island

Weather History for KMCD - August, 2014

Change the Weather History Date:

Thursday, August 28, 2014

  Actual Average Record
Temperature  
Mean Temperature 56 °F -  
Max Temperature 64 °F 70 °F 87 °F (1976)
Min Temperature 47 °F 56 °F 33 °F (2005)
Degree Days  
Heating Degree Days 10    
Growing Degree Days 6 (Base 50)    
Moisture  
Dew Point 48 °F    
Average Humidity 77    
Maximum Humidity 99    
Minimum Humidity 51    
Precipitation  
Precipitation 0.00 in - - ()
Sea Level Pressure  
Sea Level Pressure 30.16 in    
Wind  
Wind Speed 5 mph (WNW)    
Max Wind Speed 8 mph    
Max Gust Speed -    
Visibility 10 miles    
Events      
Averages and records for this station are not official NWS values.
T = Trace of Precipitation, MM = Missing Value Source: NWS Daily Summary

Daily Weather History Graph

Daily Weather History Graph

Search for Another Location

Airport or City:

Trip Planner

Search our weather history database for the weather conditions in past years. The results will help you decide how hot, cold, wet, or windy it might be!

Date:

Astronomy

Aug. 28, 2014 Rise Set
Actual Time 6:54 AM EDT 8:24 PM EDT
Civil Twilight 6:23 AM EDT 8:55 PM EDT
Nautical Twilight 5:45 AM EDT 9:32 PM EDT
Astronomical Twilight 5:04 AM EDT 10:13 PM EDT
Moon 9:57 AM EDT (8/28) 9:35 PM EDT (8/28)
Length of Visible Light 14h 31m
Length of Day
13h 29m
Waxing Crescent, 8% of the Moon is Illuminated
Aug 28
Waxing Crescent
Sep 2
First Quarter
Sep 8
Full
Sep 15
Last Quarter
Sep 24
New

Hourly Weather History & Observations

Time (EDT) Temp. Dew Point Humidity Pressure Visibility Wind Dir Wind Speed Gust Speed Precip Events Conditions
12:18 AM 49.8 °F 45.7 °F 86% 30.17 in 10.0 mi WNW 4.6 mph - N/A   Clear
12:39 AM 49.5 °F 45.9 °F 87% 30.16 in 10.0 mi WNW 5.8 mph - N/A   Clear
1:18 AM 48.9 °F 45.5 °F 88% 30.16 in 10.0 mi NW 6.9 mph - N/A   Clear
1:39 AM 48.4 °F 45.0 °F 88% 30.17 in 10.0 mi NNW 5.8 mph - N/A   Clear
1:59 AM 48.2 °F 46.2 °F 93% 30.16 in 10.0 mi NNW 6.9 mph - N/A   Clear
2:18 AM 49.1 °F 45.9 °F 89% 30.16 in 10.0 mi NNW 5.8 mph - N/A   Clear
2:39 AM 48.7 °F 46.6 °F 92% 30.16 in 10.0 mi NNW 6.9 mph - N/A   Clear
2:59 AM 49.1 °F 47.3 °F 93% 30.16 in 10.0 mi NW 5.8 mph - N/A   Clear
3:18 AM 48.7 °F 47.1 °F 94% 30.16 in 10.0 mi NNW 6.9 mph - N/A   Clear
3:39 AM 48.7 °F 47.1 °F 94% 30.17 in 10.0 mi NNW 6.9 mph - N/A   Clear
3:59 AM 48.7 °F 47.8 °F 97% 30.17 in 10.0 mi North 6.9 mph - N/A   Clear
4:19 AM 49.1 °F 48.2 °F 97% 30.17 in 10.0 mi North 6.9 mph - N/A   Clear
4:39 AM 50.9 °F 49.1 °F 94% 30.17 in 10.0 mi West 6.9 mph - N/A   Clear
4:59 AM 49.6 °F 47.5 °F 92% 30.17 in 10.0 mi WNW 8.1 mph - N/A   Clear
5:19 AM 49.3 °F 47.5 °F 94% 30.17 in 10.0 mi WNW 6.9 mph - N/A   Clear
5:39 AM 49.1 °F 47.8 °F 95% 30.17 in 10.0 mi WNW 6.9 mph - N/A   Clear
5:59 AM 49.1 °F 47.8 °F 95% 30.17 in 10.0 mi WNW 6.9 mph - N/A   Clear
6:19 AM 48.4 °F 47.5 °F 97% 30.17 in 10.0 mi NW 6.9 mph - N/A   Clear
6:39 AM 47.7 °F 47.3 °F 99% 30.18 in 10.0 mi NW 5.8 mph - N/A   Clear
6:59 AM 48.6 °F 47.8 °F 97% 30.19 in 10.0 mi NW 4.6 mph - N/A   Clear
7:19 AM 48.4 °F 47.5 °F 97% 30.19 in 10.0 mi NNW 5.8 mph - N/A   Clear
7:39 AM 49.3 °F 48.4 °F 97% 30.19 in 10.0 mi NNW 4.6 mph - N/A   Clear
7:59 AM 50.2 °F 48.9 °F 95% 30.19 in 10.0 mi NNW 4.6 mph - N/A   Clear
8:19 AM 51.6 °F 49.5 °F 92% 30.20 in 10.0 mi North 3.5 mph - N/A   Clear
8:39 AM 54.3 °F 49.6 °F 84% 30.19 in 10.0 mi North 4.6 mph - N/A   Clear
8:59 AM 55.0 °F 49.5 °F 81% 30.20 in 10.0 mi North 5.8 mph - N/A   Clear
9:19 AM 55.8 °F 50.0 °F 81% 30.19 in 10.0 mi NNE 4.6 mph - N/A   Clear
9:39 AM 57.0 °F 50.7 °F 79% 30.20 in 10.0 mi NNE 6.9 mph - N/A   Clear
9:59 AM 57.6 °F 51.1 °F 79% 30.19 in 10.0 mi NE 8.1 mph - N/A   Clear
10:19 AM 58.1 °F 51.6 °F 79% 30.20 in 10.0 mi NNE 5.8 mph - N/A   Clear
10:59 AM 60.4 °F 50.0 °F 68% 30.19 in 10.0 mi NE 4.6 mph - N/A   Clear
11:19 AM 61.2 °F 48.0 °F 62% 30.19 in 10.0 mi NE 3.5 mph - N/A   Clear
11:39 AM 62.8 °F 50.0 °F 63% 30.19 in 10.0 mi NNW 3.5 mph - N/A   Clear
11:59 AM 60.3 °F 52.0 °F 74% 30.19 in 10.0 mi West 4.6 mph - N/A   Clear
12:19 PM 59.9 °F 51.6 °F 74% 30.19 in 10.0 mi South 3.5 mph - N/A   Scattered Clouds
12:40 PM 62.4 °F 50.7 °F 66% 30.19 in 10.0 mi South 4.6 mph - N/A   Mostly Cloudy
12:59 PM 62.6 °F 49.1 °F 61% 30.18 in 10.0 mi ENE 3.5 mph - N/A   Scattered Clouds
1:19 PM 61.0 °F 48.7 °F 64% 30.18 in 10.0 mi SW 5.8 mph - N/A   Overcast
1:39 PM 63.1 °F 48.9 °F 60% 30.18 in 10.0 mi South 4.6 mph - N/A   Scattered Clouds
1:59 PM 63.5 °F 47.3 °F 56% 30.17 in 10.0 mi SSW 4.6 mph - N/A   Mostly Cloudy
2:19 PM 63.7 °F 45.7 °F 52% 30.17 in 10.0 mi SW 5.8 mph - N/A   Scattered Clouds
2:39 PM 63.5 °F 45.1 °F 51% 30.17 in 10.0 mi South 5.8 mph - N/A   Scattered Clouds
2:59 PM 63.9 °F 45.5 °F 51% 30.16 in 10.0 mi Calm Calm - N/A   Scattered Clouds
3:19 PM 64.4 °F 46.0 °F 51% 30.15 in 10.0 mi SSW 4.6 mph - N/A   Clear
3:39 PM 64.2 °F 45.9 °F 51% 30.15 in 10.0 mi NW 3.5 mph - N/A   Clear
3:59 PM 64.2 °F 46.2 °F 52% 30.15 in 10.0 mi SW 3.5 mph - N/A   Clear
4:19 PM 64.2 °F 47.8 °F 55% 30.14 in 10.0 mi SW 5.8 mph - N/A   Clear
4:39 PM 64.0 °F 48.9 °F 58% 30.14 in 10.0 mi Calm Calm - N/A   Clear
4:59 PM 64.0 °F 48.9 °F 58% 30.13 in 10.0 mi SSW 3.5 mph - N/A   Clear
5:20 PM 64.4 °F 49.3 °F 58% 30.13 in 10.0 mi Calm Calm - N/A   Clear
5:39 PM 64.6 °F 48.4 °F 56% 30.13 in 10.0 mi SSW 4.6 mph - N/A   Clear
5:59 PM 63.7 °F 48.9 °F 59% 30.13 in 10.0 mi SW 4.6 mph - N/A   Clear
6:20 PM 63.7 °F 48.7 °F 58% 30.12 in 10.0 mi SW 4.6 mph - N/A   Clear
6:39 PM 63.7 °F 48.0 °F 57% 30.11 in 10.0 mi Calm Calm - N/A   Clear
7:00 PM 63.0 °F 48.2 °F 59% 30.12 in 10.0 mi SW 4.6 mph - N/A   Clear
7:19 PM 62.6 °F 47.8 °F 58% 30.12 in 10.0 mi WSW 3.5 mph - N/A   Clear
7:39 PM 60.8 °F 49.5 °F 66% 30.11 in 10.0 mi WSW 4.6 mph - N/A   Clear
8:00 PM 58.8 °F 49.6 °F 72% 30.11 in 10.0 mi Calm Calm - N/A   Clear
8:19 PM 57.4 °F 50.7 °F 78% 30.11 in 10.0 mi WNW 3.5 mph - N/A   Clear
8:39 PM 55.2 °F 50.2 °F 83% 30.12 in 10.0 mi Calm Calm - N/A   Clear
9:00 PM 55.2 °F 50.0 °F 83% 30.12 in 10.0 mi Calm Calm - N/A   Clear
9:19 PM 54.5 °F 49.5 °F 83% 30.12 in 10.0 mi Calm Calm - N/A   Clear
9:39 PM 54.3 °F 49.1 °F 83% 30.13 in 10.0 mi Calm Calm - N/A   Clear
10:00 PM 54.3 °F 49.1 °F 83% 30.13 in 10.0 mi Calm Calm - N/A   Clear
10:19 PM 54.0 °F 48.4 °F 81% 30.13 in 10.0 mi Calm Calm - N/A   Clear
10:39 PM 53.8 °F 48.2 °F 81% 30.12 in 10.0 mi Calm Calm - N/A   Clear
11:00 PM 53.2 °F 48.0 °F 82% 30.12 in 10.0 mi South 3.5 mph - N/A   Clear
11:19 PM 53.1 °F 48.4 °F 84% 30.12 in 10.0 mi Calm Calm - N/A   Clear
11:39 PM 53.4 °F 48.9 °F 85% 30.12 in 10.0 mi Calm Calm - N/A   Clear
11:59 PM 52.7 °F 49.3 °F 88% 30.12 in 10.0 mi SSE 3.5 mph - N/A   Clear